Date,TemperatureHighF,TemperatureAvgF,TemperatureLowF,DewpointHighF,DewpointAvgF,DewpointLowF,HumidityHigh,HumidityAvg,HumidityLow,PressureMaxIn,PressureMinIn,WindSpeedMaxMPH,WindSpeedAvgMPH,GustSpeedMaxMPH,PrecipitationSumIn
2013-1-1,20.0,8.7,-4.0,11.0,3.5,-7.0,86,79,62,0.00,40.00,14,4,19,0.00
2013-1-2,21.0,4.6,-5.0,14.0,-0.0,-10.0,90,81,59,0.00,40.00,13,3,14,0.00
2013-1-3,24.0,5.4,-10.0,7.0,-3.2,-14.0,82,69,38,0.00,40.00,9,3,10,0.00
2013-1-4,30.0,6.1,-10.0,6.0,-4.0,-14.0,81,65,28,0.00,40.00,17,4,20,0.00
2013-1-5,34.0,10.3,-6.0,11.0,0.6,-10.0,81,66,33,0.00,40.00,6,3,7,0.00
2013-1-6,36.0,18.2,2.0,13.0,6.2,-3.0,83,62,33,0.00,40.00,6,2,7,0.00
2013-1-7,33.0,17.4,-2.0,23.0,4.9,-6.0,85,61,29,0.00,40.00,17,6,19,0.00
2013-1-8,34.0,30.7,26.0,27.0,24.6,21.0,89,77,67,0.00,40.00,16,7,22,0.00
2013-1-9,45.0,27.2,8.0,26.0,16.2,5.0,91,67,30,0.00,40.00,22,7,31,0.00
2013-1-10,40.0,30.6,16.0,28.0,18.5,13.0,95,64,37,0.00,40.00,27,14,36,0.00
2013-1-11,17.0,13.4,11.0,13.0,7.7,5.0,88,77,65,0.00,40.00,22,10,28,0.00
2013-1-12,11.0,5.0,-4.0,7.0,-0.3,-10.0,87,78,61,0.00,40.00,18,6,21,0.00
2013-1-13,9.0,-2.6,-14.0,0.0,-8.2,-22.0,81,76,59,0.00,40.00,15,3,17,0.00
2013-1-14,6.0,-6.4,-21.0,-4.0,-12.7,-27.0,82,73,59,0.00,40.00,15,4,18,0.00
2013-1-15,16.0,9.1,1.0,8.0,2.4,-5.0,79,73,66,0.00,40.00,19,6,23,0.00
2013-1-16,27.0,12.9,3.0,17.0,7.7,-4.0,87,79,61,0.00,40.00,10,3,12,0.00
2013-1-17,30.0,9.4,-4.0,19.0,4.2,-7.0,89,79,56,0.00,40.00,7,2,7,0.00
2013-1-18,34.0,13.7,-5.0,17.0,5.9,-9.0,86,72,44,0.00,40.00,7,3,8,0.00
2013-1-19,41.0,14.7,-2.0,16.0,6.0,-5.0,86,70,31,0.00,40.00,10,3,13,0.00
2013-1-20,36.0,13.4,-3.0,14.0,3.7,-7.0,85,68,31,0.00,40.00,12,3,14,0.00
2013-1-21,40.0,15.8,-1.0,16.0,5.4,-5.0,84,66,32,0.00,40.00,8,3,14,0.00
2013-1-22,43.0,16.9,-1.0,16.0,5.6,-4.0,86,65,26,0.00,40.00,7,3,8,0.00
2013-1-23,46.0,21.9,6.0,21.0,10.5,1.0,81,64,25,0.00,40.00,8,3,9,0.00
2013-1-24,38.0,34.3,21.0,35.0,30.2,14.0,93,85,63,0.00,40.00,14,2,17,0.00
2013-1-25,40.0,34.9,32.0,35.0,32.2,29.0,95,90,76,0.00,40.00,7,2,8,0.00
2013-1-26,42.0,32.9,22.0,37.0,28.8,21.0,96,85,66,0.00,40.00,11,3,15,0.00
2013-1-27,36.0,29.9,22.0,33.0,27.7,18.0,94,91,75,0.00,40.00,24,7,34,0.00
2013-1-28,23.0,18.3,13.0,18.0,12.6,8.0,88,78,63,0.00,40.00,18,9,25,0.00
2013-1-29,26.0,17.7,8.0,19.0,12.0,4.0,91,78,62,0.00,40.00,16,6,23,0.00
2013-1-30,34.0,26.4,20.0,27.0,21.3,14.0,89,80,68,0.00,40.00,29,12,41,0.00
2013-1-31,34.0,32.4,30.0,24.0,23.0,22.0,78,68,61,0.00,40.00,18,12,28,0.00
2013-2-1,40.0,29.3,20.0,27.0,21.3,13.0,89,73,52,0.00,40.00,19,6,26,0.00
2013-2-2,42.0,22.1,7.0,20.0,13.1,5.0,89,71,31,0.00,40.00,12,3,15,0.00
2013-2-3,42.0,25.1,15.0,19.0,13.0,9.0,87,64,29,0.00,40.00,18,5,23,0.00
2013-2-4,39.0,22.2,7.0,17.0,10.8,3.0,84,64,35,0.00,40.00,19,5,22,0.00
2013-2-5,45.0,29.2,15.0,24.0,15.8,9.0,80,60,26,0.00,40.00,7,3,8,0.00
2013-2-6,38.0,30.2,16.0,22.0,16.9,10.0,79,59,32,0.00,40.00,19,6,24,0.00
2013-2-7,43.0,23.3,5.0,14.0,8.1,2.0,87,58,18,0.00,40.00,22,6,27,0.00
2013-2-8,37.0,30.1,24.0,26.0,19.7,14.0,89,66,47,0.00,40.00,20,9,26,0.00
2013-2-9,28.0,23.0,19.0,21.0,19.1,15.0,90,84,70,0.00,40.00,18,6,21,0.00
2013-2-10,25.0,19.5,13.0,18.0,14.4,10.0,89,80,65,0.00,40.00,15,7,18,0.00
2013-2-11,24.0,13.4,4.0,13.0,7.3,-1.0,89,77,51,0.00,40.00,14,4,19,0.00
2013-2-12,26.0,16.3,1.0,18.0,9.4,-3.0,82,74,60,0.00,40.00,14,5,20,0.00
2013-2-13,34.0,26.5,16.0,22.0,19.2,12.0,86,74,61,0.00,40.00,19,7,24,0.00
2013-2-14,34.0,28.9,19.0,24.0,19.7,10.0,85,69,51,0.00,40.00,19,9,26,0.00
2013-2-15,35.0,25.6,16.0,22.0,17.2,10.0,81,70,52,0.00,40.00,17,6,21,0.00
2013-2-16,46.0,25.0,8.0,21.0,13.3,5.0,89,65,25,0.00,40.00,7,4,8,0.00
2013-2-17,37.0,25.0,15.0,21.0,14.3,9.0,77,64,40,0.00,40.00,28,10,36,0.00
2013-2-18,32.0,18.8,3.0,14.0,7.6,0.0,86,64,38,0.00,40.00,7,3,10,0.00
2013-2-19,40.0,31.0,18.0,13.0,7.7,2.0,63,37,27,0.00,40.00,27,12,33,0.00
2013-2-20,37.0,29.6,24.0,24.0,17.5,9.0,87,61,43,0.00,40.00,16,6,21,0.00
2013-2-21,27.0,22.9,18.0,21.0,15.2,10.0,87,72,56,0.00,40.00,18,12,24,0.00
2013-2-22,27.0,19.1,12.0,16.0,11.7,6.0,85,72,52,0.00,40.00,17,6,25,0.00
2013-2-23,27.0,20.2,16.0,21.0,14.8,11.0,89,79,72,0.00,40.00,24,9,34,0.00
2013-2-24,26.0,19.5,8.0,15.0,11.6,1.0,88,71,52,0.00,40.00,17,11,23,0.00
2013-2-25,30.0,15.1,-3.0,16.0,5.5,-7.0,84,67,38,0.00,40.00,16,6,21,0.00
2013-2-26,24.0,19.9,10.0,16.0,12.9,4.0,87,74,57,0.00,40.00,19,10,25,0.00
2013-2-27,28.0,11.9,-2.0,9.0,3.4,-6.0,83,69,41,0.00,40.00,14,4,17,0.00
2013-2-28,36.0,21.1,2.0,19.0,8.3,-3.0,82,60,36,0.00,40.00,16,5,22,0.00
2013-3-1,42.0,35.3,26.0,28.0,24.5,17.0,83,65,51,0.00,40.00,16,8,22,0.00
2013-3-2,47.0,31.9,17.0,28.0,22.1,14.0,90,69,35,0.00,40.00,16,4,20,0.00
2013-3-3,38.0,33.3,27.0,34.0,29.5,22.0,92,86,76,0.00,40.00,16,4,19,0.00
2013-3-4,35.0,26.8,15.0,31.0,13.1,0.0,87,58,29,0.00,40.00,21,10,27,0.00
2013-3-5,50.0,26.8,6.0,16.0,7.6,1.0,80,50,13,0.00,40.00,13,4,18,0.00
2013-3-6,51.0,41.2,28.0,31.0,17.5,11.0,86,40,24,0.00,40.00,23,9,29,0.00
2013-3-7,44.0,35.5,30.0,30.0,27.5,25.0,89,73,48,0.00,40.00,13,6,17,0.00
2013-3-8,42.0,34.8,31.0,32.0,29.3,26.0,94,81,51,0.00,40.00,11,4,16,0.00
2013-3-9,38.0,32.1,24.0,31.0,24.4,13.0,94,75,42,0.00,40.00,17,11,26,0.00
2013-3-10,42.0,29.3,15.0,22.0,15.5,10.0,84,59,30,0.00,40.00,17,6,23,0.00
2013-3-11,42.0,34.5,22.0,27.0,20.5,13.0,77,57,34,0.00,40.00,25,10,34,0.00
2013-3-12,47.0,40.1,32.0,31.0,28.3,25.0,81,63,44,0.00,40.00,21,9,23,0.00
2013-3-13,58.0,39.7,24.0,31.0,24.9,21.0,87,60,25,0.00,40.00,10,4,13,0.00
2013-3-14,65.0,44.6,25.0,28.0,23.0,14.0,83,50,13,0.00,40.00,14,4,19,0.00
2013-3-15,59.0,48.4,34.0,32.0,21.2,12.0,73,39,16,0.00,40.00,19,7,24,0.00
2013-3-16,48.0,38.1,27.0,32.0,20.5,13.0,80,53,23,0.00,40.00,19,7,27,0.00
2013-3-17,39.0,33.6,28.0,30.0,21.6,11.0,89,62,46,0.00,40.00,28,13,39,0.00
2013-3-18,40.0,32.0,25.0,21.0,14.8,11.0,77,50,30,0.00,40.00,27,9,36,0.00
2013-3-19,45.0,33.5,21.0,18.0,4.9,-16.0,71,37,6,0.00,40.00,14,4,17,0.00
2013-3-20,42.0,35.8,26.0,36.0,24.3,6.0,89,65,29,0.00,40.00,12,4,14,0.00
2013-3-21,44.0,29.9,20.0,33.0,21.6,8.0,95,72,39,0.00,40.00,30,13,40,0.00
2013-3-22,24.0,20.9,17.0,21.0,13.5,6.0,90,73,50,0.00,40.00,19,7,30,0.00
2013-3-23,25.0,18.7,12.0,16.0,11.8,5.0,88,74,51,0.00,40.00,17,8,23,0.00
2013-3-24,28.0,16.3,5.0,17.0,8.4,1.0,83,71,46,0.00,40.00,13,4,22,0.00
2013-3-25,43.0,24.9,8.0,22.0,11.8,4.0,84,60,33,0.00,40.00,11,4,16,0.00
2013-3-26,51.0,37.1,25.0,30.0,20.7,15.0,84,56,23,0.00,40.00,22,6,29,0.00
2013-3-27,56.0,38.2,22.0,31.0,22.4,17.0,91,60,21,0.00,40.00,10,3,16,0.00
2013-3-28,60.0,43.2,27.0,28.0,23.2,17.0,78,50,19,0.00,40.00,13,4,27,0.00
2013-3-29,55.0,44.4,32.0,33.0,26.9,21.0,81,53,26,0.00,40.00,21,6,25,0.00
2013-3-30,57.0,42.1,25.0,30.0,23.1,-99.9,85,53,23,0.00,40.00,19,6,24,0.00
2013-3-31,60.0,42.4,22.0,28.0,19.2,4.0,85,48,11,0.00,40.00,18,5,25,0.00
2013-4-1,48.0,40.6,32.0,37.0,33.0,24.0,92,74,43,0.00,40.00,18,5,31,0.00
2013-4-2,51.0,39.3,32.0,37.0,31.7,28.0,95,76,42,0.00,40.00,8,3,17,0.00
2013-4-3,57.0,42.0,26.0,38.0,27.3,22.0,92,62,27,0.00,40.00,15,5,21,0.00
2013-4-4,61.0,46.7,28.0,31.0,24.8,19.0,84,48,20,0.00,40.00,13,5,20,0.00
2013-4-5,53.0,44.3,31.0,38.0,30.3,23.0,89,60,31,0.00,40.00,19,7,25,0.00
2013-4-6,51.0,38.4,27.0,36.0,27.2,21.0,84,66,30,0.00,40.00,24,4,27,0.00
2013-4-7,51.0,41.5,28.0,34.0,26.5,20.0,89,59,28,0.00,40.00,18,6,28,0.00
2013-4-8,46.0,35.6,23.0,33.0,28.7,19.0,96,79,33,0.00,40.00,18,8,25,0.00
2013-4-9,29.0,20.7,15.0,22.0,14.5,10.0,95,78,47,0.00,40.00,19,10,23,0.00
2013-4-10,43.0,28.8,11.0,27.0,16.2,7.0,82,60,38,0.00,40.00,15,7,21,0.00
2013-4-11,46.0,38.5,33.0,34.0,29.9,26.0,94,72,47,0.00,40.00,17,8,21,0.00
2013-4-12,51.0,38.8,25.0,28.0,23.2,16.0,89,58,25,0.00,40.00,22,7,28,0.00
2013-4-13,49.0,37.8,31.0,34.0,27.5,16.0,91,67,28,0.00,40.00,23,7,28,0.00
2013-4-14,38.0,30.9,25.0,24.0,7.9,-1.0,79,38,20,0.00,40.00,21,10,27,0.00
2013-4-15,37.0,30.8,25.0,30.0,24.5,18.0,95,78,47,0.00,40.00,16,6,20,0.00
2013-4-16,33.0,28.4,24.0,25.0,19.8,12.0,93,70,47,0.00,40.00,17,7,21,0.00
2013-4-17,33.0,25.5,19.0,20.0,12.0,7.0,71,56,34,0.00,40.00,24,10,30,0.00
2013-4-18,38.0,29.2,18.0,13.0,5.5,-3.0,61,38,19,0.00,40.00,19,8,24,0.00
2013-4-19,44.0,33.1,19.0,32.0,20.9,12.0,86,61,42,0.00,40.00,19,6,26,0.00
2013-4-20,44.0,37.6,32.0,34.0,31.3,26.0,94,78,53,0.00,40.00,17,8,24,0.00
2013-4-21,53.0,39.9,23.0,32.0,23.2,19.0,90,57,27,0.00,40.00,16,5,26,0.00
2013-4-22,45.0,38.5,30.0,31.0,22.9,10.0,83,55,27,0.00,40.00,21,10,26,0.00
2013-4-23,42.0,32.0,21.0,22.0,11.9,-5.0,80,48,13,0.00,40.00,20,8,23,0.00
2013-4-24,52.0,38.4,22.0,18.0,9.8,-3.0,73,35,9,0.00,40.00,14,5,17,0.00
2013-4-25,54.0,39.5,20.0,22.0,11.3,-9.0,78,40,7,0.00,40.00,23,7,27,0.00
2013-4-26,59.0,43.0,22.0,18.0,12.1,6.0,68,33,13,0.00,40.00,17,6,24,0.00
2013-4-27,63.0,47.3,24.0,24.0,17.6,12.0,73,36,13,0.00,40.00,21,7,27,0.00
2013-4-28,66.0,51.4,29.0,26.0,23.5,20.0,75,38,18,0.00,40.00,20,7,25,0.00
2013-4-29,64.0,49.9,29.0,30.0,24.6,20.0,75,42,22,0.00,40.00,18,8,30,0.00
2013-4-30,55.0,45.5,35.0,29.0,12.4,-4.0,53,28,13,0.00,40.00,28,13,37,0.00
2013-5-1,41.0,33.2,27.0,23.0,10.2,-2.0,72,39,19,0.00,40.00,22,11,32,0.00
2013-5-2,55.0,37.2,17.0,19.0,11.1,0.0,77,40,10,0.00,40.00,15,6,22,0.00
2013-5-3,61.0,43.5,22.0,21.0,13.3,0.0,75,38,9,0.00,40.00,19,6,23,0.00
2013-5-4,61.0,46.4,25.0,31.0,17.8,12.0,69,35,13,0.00,40.00,14,3,49,0.00
2013-5-5,64.0,49.9,34.0,31.0,27.3,20.0,75,45,18,0.00,40.00,15,5,20,0.00
2013-5-6,61.0,49.0,39.0,38.0,31.0,23.0,73,52,23,0.00,40.00,16,4,26,0.00
2013-5-7,57.0,46.5,34.0,39.0,33.9,25.0,91,65,28,0.00,40.00,22,6,24,0.00
2013-5-8,54.0,43.3,32.0,43.0,35.8,28.0,91,75,50,0.00,40.00,18,5,23,0.00
2013-5-9,65.0,48.7,31.0,42.0,30.7,19.0,97,60,17,0.00,40.00,13,5,23,0.00
2013-5-10,68.0,51.2,34.0,38.0,28.9,-99.9,81,49,18,0.00,40.00,13,4,21,0.00
2013-5-11,70.0,54.3,32.0,37.0,25.5,-99.9,83,41,14,0.00,40.00,16,6,20,0.00
2013-5-12,74.0,60.0,33.0,34.0,26.9,22.0,74,33,15,0.00,40.00,18,6,25,0.00
2013-5-13,81.0,63.0,37.0,38.0,29.4,23.0,75,35,12,0.00,40.00,14,4,21,0.00
2013-5-14,77.0,63.1,42.0,38.0,30.8,20.0,65,34,12,0.00,40.00,18,5,24,0.00
2013-5-15,76.0,61.6,45.0,38.0,32.7,21.0,65,36,13,0.00,40.00,27,7,36,0.00
2013-5-16,72.0,56.5,44.0,40.0,21.1,-99.9,73,41,17,0.00,40.00,19,7,34,0.00
2013-5-17,60.0,50.3,42.0,43.0,33.8,-99.9,85,62,27,0.00,40.00,19,7,31,0.00
2013-5-18,52.0,44.1,39.0,43.0,37.2,30.0,90,77,43,0.00,40.00,16,7,22,0.00
2013-5-19,54.0,43.7,34.0,38.0,34.5,29.0,89,71,39,0.00,40.00,25,8,31,0.00
2013-5-20,55.0,46.4,40.0,43.0,38.0,35.0,88,72,51,0.00,40.00,17,9,22,0.00
2013-5-21,66.0,50.5,31.0,42.0,30.2,15.0,94,54,14,0.00,40.00,12,4,17,0.00
2013-5-22,74.0,59.0,45.0,36.0,26.5,17.0,62,33,11,0.00,40.00,23,12,33,0.00
2013-5-23,68.0,49.4,32.0,33.0,26.3,14.0,72,46,12,0.00,40.00,26,11,38,0.00
2013-5-24,68.0,50.9,29.0,29.0,19.9,1.0,76,36,7,0.00,40.00,14,4,20,0.00
2013-5-25,72.0,56.1,37.0,31.0,20.9,11.0,65,32,9,0.00,40.00,21,6,33,0.00
2013-5-26,72.0,59.6,41.0,27.0,17.1,9.0,55,22,9,0.00,40.00,19,8,30,0.00
2013-5-27,66.0,55.2,39.0,34.0,28.9,22.0,67,37,18,0.00,40.00,24,9,31,0.00
2013-5-28,57.0,46.8,41.0,41.0,35.5,23.0,88,66,29,0.00,40.00,26,8,36,0.00
2013-5-29,54.0,45.4,38.0,39.0,33.8,25.0,91,66,33,0.00,40.00,20,8,29,0.00
2013-5-30,55.0,44.9,32.0,39.0,31.1,25.0,94,63,31,0.00,40.00,23,8,30,0.00
2013-5-31,57.0,45.9,30.0,31.0,22.5,14.0,88,44,20,0.00,40.00,21,10,29,0.00
2013-6-1,67.0,50.6,27.0,35.0,25.2,14.0,79,43,14,0.00,40.00,16,6,19,0.00
2013-6-2,80.0,60.9,34.0,35.0,24.9,15.0,81,36,8,0.00,40.00,19,5,29,0.00
2013-6-3,66.0,58.0,43.0,31.0,19.0,9.0,48,23,11,0.00,40.00,22,12,26,0.00
2013-6-4,68.0,53.4,31.0,33.0,25.4,20.0,74,38,17,0.00,40.00,20,8,26,0.00
2013-6-5,70.0,55.1,35.0,36.0,29.8,23.0,81,44,17,0.00,40.00,20,6,25,0.00
2013-6-6,74.0,57.4,35.0,36.0,30.6,22.0,76,42,14,0.00,40.00,19,6,24,0.00
2013-6-7,76.0,60.2,38.0,40.0,34.3,28.0,78,43,17,0.00,40.00,19,6,26,0.00
2013-6-8,75.0,62.0,44.0,43.0,33.0,21.0,74,39,15,0.00,40.00,22,8,27,0.00
2013-6-9,84.0,63.3,38.0,42.0,33.9,27.0,75,40,14,0.00,40.00,17,5,24,0.00
2013-6-10,85.0,71.5,51.0,43.0,28.0,12.0,64,27,6,0.00,40.00,17,5,28,0.00
2013-6-11,77.0,66.3,53.0,34.0,21.6,10.0,48,20,10,0.00,40.00,17,7,28,0.00
2013-6-12,79.0,66.5,41.0,38.0,29.5,19.0,70,29,10,0.00,40.00,15,5,25,0.00
2013-6-13,81.0,71.8,52.0,37.0,26.8,13.0,50,20,7,0.00,40.00,23,10,34,0.00
2013-6-14,65.0,54.3,35.0,35.0,30.9,26.0,80,43,24,0.00,40.00,19,10,22,0.00
2013-6-15,77.0,53.9,32.0,36.0,28.6,13.0,78,45,8,0.00,40.00,14,4,22,0.00
2013-6-16,81.0,59.8,35.0,33.0,23.1,8.0,72,34,6,0.00,40.00,16,4,26,0.00
2013-6-17,82.0,62.6,36.0,30.0,22.8,9.0,66,29,6,0.00,40.00,14,4,19,0.00
2013-6-18,82.0,64.6,37.0,33.0,21.0,11.0,66,25,6,0.00,40.00,19,6,28,0.00
2013-6-19,73.0,61.7,46.0,33.0,20.7,13.0,36,21,11,0.00,40.00,26,10,32,0.00
2013-6-20,65.0,44.8,30.0,31.0,23.7,17.0,71,46,18,0.00,40.00,21,5,25,0.00
2013-6-21,68.0,67.5,67.0,32.0,31.0,30.0,26,25,24,0.00,40.00,18,18,23,0.00
2013-6-22,65.0,59.3,39.0,33.0,29.1,25.0,72,32,24,0.00,40.00,24,14,30,0.00
2013-6-23,77.0,55.8,33.0,36.0,27.5,19.0,75,42,11,0.00,40.00,17,4,21,0.00
2013-6-24,76.0,62.4,46.0,44.0,30.3,22.0,70,34,14,0.00,40.00,17,7,27,0.00
2013-6-25,77.0,59.1,43.0,44.0,39.9,35.0,82,53,21,0.00,40.00,9,3,16,0.00
2013-6-26,83.0,67.3,46.0,47.0,41.3,38.0,73,43,22,0.00,40.00,15,5,21,0.00
2013-6-27,89.0,70.3,46.0,47.0,42.0,35.0,79,42,14,0.00,40.00,14,5,18,0.00
2013-6-28,91.0,75.4,50.0,46.0,38.9,29.0,75,33,11,0.00,40.00,14,4,20,0.00
2013-6-29,90.0,75.3,50.0,46.0,39.2,31.0,68,31,12,0.00,40.00,15,3,21,0.00
2013-6-30,89.0,74.4,58.0,46.0,38.0,26.0,58,30,10,0.00,40.00,14,5,18,0.00
2013-7-1,90.0,74.4,48.0,42.0,36.3,27.0,66,29,10,0.00,40.00,12,4,16,0.00
2013-7-2,89.0,72.1,50.0,45.0,39.7,32.0,65,34,13,0.00,40.00,11,3,20,0.00
2013-7-3,86.0,71.8,52.0,49.0,44.8,42.0,68,40,23,0.00,40.00,16,5,21,0.00
2013-7-4,81.0,68.7,57.0,57.0,51.3,45.0,91,57,28,0.00,40.00,17,6,28,0.00
2013-7-5,82.0,68.1,57.0,57.0,51.1,44.0,89,58,28,0.00,40.00,29,7,40,0.00
2013-7-6,82.0,61.2,53.0,53.0,50.5,37.0,89,71,21,0.00,40.00,14,4,20,0.00
2013-7-7,81.0,66.2,56.0,52.0,48.2,40.0,76,55,25,0.00,40.00,28,6,33,0.00
2013-7-8,81.0,64.5,52.0,51.0,45.2,-99.9,87,57,21,0.00,40.00,14,3,18,0.00
2013-7-9,86.0,70.2,51.0,50.0,41.0,28.0,84,43,12,0.00,40.00,9,3,19,0.00
2013-7-10,89.0,68.4,44.0,44.0,32.2,-99.9,80,36,8,0.00,40.00,7,2,13,0.00
2013-7-11,84.0,67.4,52.0,50.0,42.0,33.0,68,43,19,0.00,40.00,25,5,31,0.00
2013-7-12,75.0,62.5,56.0,56.0,51.3,46.0,92,69,37,0.00,40.00,8,4,12,0.00
2013-7-13,80.0,67.2,59.0,54.0,50.8,42.0,80,59,27,0.00,40.00,26,6,32,0.00
2013-7-14,83.0,65.2,47.0,53.0,45.6,30.0,92,58,15,0.00,40.00,10,3,16,0.00
2013-7-15,87.0,69.4,51.0,57.0,46.0,39.0,80,48,19,0.00,40.00,20,3,23,0.00
2013-7-16,82.0,67.8,59.0,56.0,52.7,46.0,82,61,29,0.00,40.00,15,4,23,0.00
2013-7-17,82.0,66.9,57.0,59.0,54.6,49.0,89,67,33,0.00,40.00,17,5,21,0.00
2013-7-18,87.0,70.4,52.0,55.0,49.0,34.0,89,53,15,0.00,40.00,13,3,17,0.00
2013-7-19,88.0,73.1,52.0,49.0,40.2,25.0,76,36,10,0.00,40.00,11,4,16,0.00
2013-7-20,87.0,69.4,46.0,43.0,32.3,-99.9,72,33,9,0.00,40.00,12,3,18,0.00
2013-7-21,88.0,74.5,48.0,40.0,32.3,23.0,64,26,9,0.00,40.00,14,5,21,0.00
2013-7-22,88.0,75.1,47.0,40.0,31.1,18.0,64,24,7,0.00,40.00,15,5,20,0.00
2013-7-23,87.0,71.1,45.0,39.0,32.7,17.0,67,29,8,0.00,40.00,11,4,16,0.00
2013-7-24,80.0,68.8,50.0,48.0,40.1,29.0,60,36,19,0.00,40.00,25,6,32,0.00
2013-7-25,84.0,68.9,52.0,49.0,41.6,30.0,78,44,14,0.00,40.00,17,6,23,0.00
2013-7-26,87.0,69.3,47.0,44.0,35.7,25.0,73,36,10,0.00,40.00,13,4,20,0.00
2013-7-27,70.0,62.0,53.0,55.0,46.3,36.0,81,57,39,0.00,40.00,13,4,16,0.00
2013-7-28,76.0,62.3,49.0,53.0,46.7,40.0,90,61,27,0.00,40.00,22,6,27,0.00
2013-7-29,76.0,62.4,52.0,50.0,46.3,41.0,82,58,30,0.00,40.00,15,5,18,0.00
2013-7-30,83.0,66.3,51.0,48.0,40.9,26.0,82,46,12,0.00,40.00,13,4,24,0.00
2013-7-31,86.0,68.9,49.0,42.0,34.7,25.0,67,35,11,0.00,40.00,12,4,23,0.00
2013-8-1,85.0,70.5,50.0,54.0,43.3,37.0,64,39,20,0.00,40.00,21,9,31,0.00
2013-8-2,84.0,66.1,46.0,49.0,37.6,17.0,79,42,8,0.00,40.00,14,4,22,0.00
2013-8-3,86.0,67.9,49.0,36.0,28.7,18.0,57,28,9,0.00,40.00,15,5,22,0.00
2013-8-4,85.0,72.9,49.0,41.0,32.8,25.0,61,27,11,0.00,40.00,17,5,45,0.00
2013-8-5,83.0,66.6,46.0,42.0,35.7,27.0,71,36,13,0.00,40.00,23,5,40,0.00
2013-8-6,85.0,68.9,49.0,43.0,34.9,23.0,68,33,10,0.00,40.00,18,5,22,0.00
2013-8-7,82.0,63.5,43.0,42.0,35.9,26.0,71,40,12,0.00,40.00,22,6,29,0.00
2013-8-8,79.0,60.7,45.0,50.0,41.0,30.0,77,52,16,0.00,40.00,16,4,24,0.00
2013-8-9,79.0,60.9,41.0,47.0,38.2,25.0,87,49,14,0.00,40.00,25,7,39,0.00
2013-8-10,81.0,67.1,50.0,41.0,35.7,21.0,64,34,11,0.00,40.00,16,6,25,0.00
2013-8-11,80.0,68.2,52.0,43.0,35.8,27.0,59,32,14,0.00,40.00,19,5,25,0.00
2013-8-12,76.0,64.4,47.0,41.0,36.6,30.0,69,38,19,0.00,40.00,21,8,26,0.00
2013-8-13,82.0,64.6,43.0,41.0,30.9,-99.9,75,36,11,0.00,40.00,13,3,19,0.00
2013-8-14,84.0,65.8,44.0,40.0,24.4,-99.9,65,30,9,0.00,40.00,15,5,25,0.00
2013-8-15,87.0,64.5,46.0,35.0,13.0,-99.9,57,21,8,0.00,40.00,12,3,15,0.00
2013-8-16,86.0,72.2,46.0,36.0,24.8,-99.9,55,20,10,0.00,40.00,15,4,20,0.00
2013-8-17,85.0,65.5,53.0,50.0,38.6,-99.9,73,42,15,0.00,40.00,27,7,44,0.00
2013-8-18,85.0,68.3,46.0,49.0,42.0,34.0,89,46,16,0.00,40.00,16,5,22,0.00
2013-8-19,85.0,63.0,49.0,52.0,34.6,-99.9,74,47,20,0.00,40.00,16,5,21,0.00
2013-8-20,80.0,66.2,54.0,51.0,44.8,-99.9,80,52,24,0.00,40.00,14,4,23,0.00
2013-8-21,82.0,66.8,47.0,50.0,44.6,39.0,87,51,21,0.00,40.00,17,5,23,0.00
2013-8-22,79.0,63.2,50.0,51.0,44.9,40.0,74,54,24,0.00,40.00,24,6,30,0.00
2013-8-23,68.0,60.6,55.0,54.0,51.3,49.0,89,72,50,0.00,40.00,19,6,25,0.00
2013-8-24,77.0,58.4,44.0,52.0,45.4,-99.9,94,68,23,0.00,40.00,20,4,33,0.00
2013-8-25,75.0,65.0,49.0,49.0,45.7,40.0,78,51,28,0.00,40.00,18,8,23,0.00
2013-8-26,68.0,64.0,60.0,52.0,48.6,45.0,72,57,46,0.00,40.00,19,10,25,0.00
2013-8-27,72.0,61.4,54.0,52.0,50.5,49.0,82,68,45,0.00,40.00,12,3,14,0.00
2013-8-28,80.0,74.2,65.0,56.0,46.5,42.0,64,38,25,0.00,40.00,19,5,25,0.00
2013-8-29,83.0,67.5,48.0,51.0,46.1,43.0,86,51,25,0.00,40.00,15,4,17,0.00
2013-8-30,85.0,70.2,47.0,49.0,45.3,43.0,85,46,23,0.00,40.00,17,5,21,0.00
2013-8-31,83.0,67.3,50.0,52.0,44.3,-99.9,81,48,20,0.00,40.00,17,4,21,0.00
2013-9-1,77.0,64.1,53.0,56.0,49.4,45.0,83,61,32,0.00,40.00,15,3,22,0.00
2013-9-2,79.0,67.0,59.0,57.0,54.0,47.0,90,66,34,0.00,40.00,9,4,15,0.00
2013-9-3,79.0,65.6,51.0,56.0,51.4,46.0,88,63,30,0.00,40.00,18,5,28,0.00
2013-9-4,81.0,64.9,46.0,53.0,48.6,43.0,91,61,28,0.00,40.00,12,4,19,0.00
2013-9-5,85.0,70.9,58.0,51.0,45.8,37.0,72,45,18,0.00,40.00,20,7,25,0.00
2013-9-6,85.0,69.4,55.0,49.0,43.4,31.0,72,44,14,0.00,40.00,22,5,29,0.00
2013-9-7,78.0,61.2,54.0,54.0,46.3,-99.9,90,63,29,0.00,40.00,22,5,33,0.00
2013-9-8,63.0,56.0,51.0,53.0,50.9,47.0,94,84,61,0.00,40.00,7,3,11,0.00
2013-9-9,71.0,57.6,45.0,50.0,45.6,40.0,94,68,32,0.00,40.00,17,4,22,0.00
2013-9-10,69.0,58.6,51.0,54.0,48.0,43.0,85,69,41,0.00,40.00,13,4,19,0.00
2013-9-11,69.0,59.9,54.0,55.0,51.6,50.0,93,75,51,0.00,40.00,14,6,25,0.00
2013-9-12,68.0,55.4,49.0,53.0,48.5,43.0,94,78,44,0.00,40.00,14,5,24,0.00
2013-9-13,61.0,55.0,48.0,55.0,50.5,45.0,92,85,73,0.00,40.00,13,4,18,0.00
2013-9-14,62.0,53.7,48.0,53.0,46.7,-99.9,96,81,65,0.00,40.00,12,3,18,0.00
2013-9-15,68.0,55.0,43.0,51.0,47.1,41.0,95,77,44,0.00,40.00,11,3,14,0.00
2013-9-16,78.0,61.9,43.0,51.0,44.9,34.0,93,59,20,0.00,40.00,9,3,12,0.00
2013-9-17,74.0,66.2,58.0,54.0,44.0,32.0,66,47,22,0.00,40.00,20,8,31,0.00
2013-9-18,71.0,61.2,41.0,38.0,34.6,28.0,61,38,25,0.00,40.00,18,11,32,0.00
2013-9-19,61.0,44.6,29.0,30.0,27.0,23.0,85,55,23,0.00,40.00,16,5,19,0.00
2013-9-20,75.0,57.5,28.0,35.0,28.2,21.0,88,40,13,0.00,40.00,11,3,18,0.00
2013-9-21,75.0,59.6,43.0,36.0,27.3,-99.9,64,34,14,0.00,40.00,17,6,31,0.00
2013-9-22,62.0,56.5,48.0,38.0,34.5,29.0,64,43,28,0.00,40.00,20,8,27,0.00
2013-9-23,58.0,50.8,41.0,34.0,32.1,28.0,71,49,33,0.00,40.00,19,10,28,0.00
2013-9-24,71.0,59.2,32.0,33.0,21.5,9.0,85,32,8,0.00,40.00,23,10,30,0.00
2013-9-25,65.0,50.5,35.0,41.0,28.7,21.0,91,52,18,0.00,40.00,21,10,31,0.00
2013-9-26,43.0,37.5,35.0,35.0,33.5,32.0,91,85,63,0.00,40.00,11,4,15,0.00
2013-9-27,41.0,36.2,30.0,34.0,30.6,25.0,94,80,61,0.00,40.00,16,8,24,0.00
2013-9-28,56.0,35.5,23.0,30.0,22.5,-99.9,92,68,20,0.00,40.00,12,4,14,0.00
2013-9-29,66.0,51.7,31.0,29.0,24.5,17.0,81,41,15,0.00,40.00,18,6,29,0.00
2013-9-30,69.0,60.7,48.0,30.0,25.3,20.0,46,26,18,0.00,40.00,23,8,30,0.00
2013-10-1,68.0,55.0,42.0,33.0,31.2,22.0,67,42,16,0.00,40.00,11,4,15,0.00
2013-10-2,66.0,49.3,34.0,42.0,33.0,27.0,84,57,22,0.00,40.00,20,5,32,0.00
2013-10-3,45.0,38.5,32.0,40.0,29.1,19.0,92,69,47,0.00,40.00,26,9,40,0.00
2013-10-4,39.0,32.5,28.0,29.0,26.7,24.0,97,80,54,0.00,40.00,13,8,18,0.00
2013-10-5,47.0,33.8,20.0,28.0,23.5,18.0,91,68,40,0.00,40.00,17,5,21,0.00
2013-10-6,63.0,43.6,23.0,30.0,26.2,20.0,89,56,22,0.00,40.00,14,4,16,0.00
2013-10-7,71.0,55.1,31.0,31.0,22.8,13.0,81,35,10,0.00,40.00,8,4,12,0.00
2013-10-8,60.0,50.2,37.0,28.0,22.6,14.0,65,35,16,0.00,40.00,17,9,21,0.00
2013-10-9,60.0,45.6,29.0,36.0,27.6,21.0,80,54,22,0.00,40.00,20,10,32,0.00
2013-10-10,45.0,40.4,37.0,37.0,35.5,33.0,91,83,73,0.00,40.00,17,8,23,0.00
2013-10-11,47.0,38.3,29.0,34.0,27.6,22.0,89,68,37,0.00,40.00,19,7,26,0.00
2013-10-12,57.0,37.8,23.0,36.0,20.4,-99.9,89,59,22,0.00,40.00,9,4,13,0.00
2013-10-13,48.0,42.3,37.0,38.0,35.7,32.0,91,77,52,0.00,40.00,18,8,22,0.00
2013-10-14,43.0,37.5,32.0,36.0,31.9,29.0,90,80,58,0.00,40.00,16,7,20,0.00
2013-10-15,42.0,33.7,28.0,30.0,25.2,18.0,95,73,39,0.00,40.00,11,4,14,0.00
2013-10-16,47.0,35.6,18.0,24.0,20.1,15.0,88,57,33,0.00,40.00,16,6,21,0.00
2013-10-17,48.0,35.7,22.0,26.0,21.0,16.0,85,58,28,0.00,40.00,22,7,25,0.00
2013-10-19,54.0,36.0,19.0,26.0,15.4,-99.9,87,52,19,0.00,40.00,15,5,19,0.00
2013-10-20,54.0,38.3,25.0,24.0,19.2,17.0,74,50,24,0.00,40.00,19,6,24,0.00
2013-10-21,56.0,38.7,20.0,27.0,21.7,16.0,84,55,26,0.00,40.00,12,4,16,0.00
2013-10-22,61.0,43.9,22.0,27.0,23.7,18.0,83,49,19,0.00,40.00,11,4,15,0.00
2013-10-23,63.0,46.7,24.0,28.0,22.5,19.0,81,43,18,0.00,40.00,13,4,16,0.00
2013-10-24,65.0,49.8,25.0,26.0,21.8,16.0,76,37,14,0.00,40.00,12,6,18,0.00
2013-10-25,61.0,50.7,30.0,27.0,22.1,18.0,76,36,19,0.00,40.00,11,6,16,0.00
2013-10-27,50.0,50.0,50.0,23.0,23.0,23.0,34,34,34,0.00,40.00,5,5,8,0.00
2013-12-12,31.0,14.7,0.0,15.0,7.7,-3.0,86,74,49,0.00,40.00,5,2,5,0.00
2013-12-13,28.0,22.1,10.0,16.0,13.4,7.0,88,69,55,0.00,40.00,14,8,16,0.00
2013-12-14,26.0,16.6,10.0,18.0,3.2,-99.9,88,74,70,0.00,40.00,5,3,8,0.00
2013-12-15,34.0,21.8,6.0,20.0,13.6,3.0,88,71,55,0.00,40.00,7,4,7,0.00
2013-12-16,44.0,32.2,16.0,18.0,14.4,11.0,78,50,29,0.00,40.00,14,5,17,0.00
2013-12-17,41.0,25.4,9.0,19.0,13.5,5.0,83,63,33,0.00,40.00,5,3,6,0.00
2013-12-18,46.0,33.3,14.0,23.0,17.6,11.0,85,55,32,0.00,40.00,6,4,7,0.00
2013-12-30,37.0,21.2,10.0,14.0,10.3,6.0,83,65,33,0.00,40.00,5,3,6,0.00
2013-12-31,40.0,33.0,21.0,30.0,24.2,14.0,85,71,44,0.00,40.00,16,6,20,0.00
2014-1-1,38.0,31.3,14.0,23.0,19.8,10.0,83,62,46,0.00,40.00,23,8,28,0.00
2014-1-2,43.0,29.2,11.0,19.0,16.0,8.0,88,60,33,0.00,40.00,5,4,6,0.00